This is the latest recevied weather packets stored in our database for station/object E25XKG-15. If no packets are shown the sender has not sent any weather packets the latest 10 day(s).
| Time | Temp. | Humidity | Pressure | Rain* | Wind** | Luminosity | Snow |
|---|---|---|---|---|---|---|---|
| 1777069054 | 33.89° C | 46% | 1003.6 hPa | - | - | - | - |
| 1777068753 | 33.89° C | 46% | 1003.5 hPa | - | - | - | - |
| 1777068452 | 33.89° C | 46% | 1003.4 hPa | - | - | - | - |
| 1777068151 | 33.89° C | 47% | 1003.4 hPa | - | - | - | - |
| 1777067850 | 33.89° C | 47% | 1003.4 hPa | - | - | - | - |
| 1777067236 | 33.89° C | 48% | 1003.2 hPa | - | - | - | - |
| 1777066935 | 33.33° C | 50% | 1003.2 hPa | - | - | - | - |
| 1777066634 | 33.33° C | 49% | 1003.1 hPa | - | - | - | - |
| 1777066333 | 33.89° C | 47% | 1003 hPa | - | - | - | - |
| 1777066032 | 33.33° C | 50% | 1003 hPa | - | - | - | - |
| 1777065731 | 33.33° C | 48% | 1002.8 hPa | - | - | - | - |
| 1777065430 | 33.33° C | 49% | 1002.7 hPa | - | - | - | - |
| 1777065129 | 33.89° C | 49% | 1002.7 hPa | - | - | - | - |
| 1777064828 | 33.89° C | 48% | 1002.6 hPa | - | - | - | - |
| 1777064527 | 33.33° C | 47% | 1002.5 hPa | - | - | - | - |
| 1777064227 | 33.33° C | 48% | 1002.5 hPa | - | - | - | - |
| 1777063926 | 33.89° C | 47% | 1002.5 hPa | - | - | - | - |
| 1777063625 | 33.89° C | 48% | 1002.5 hPa | - | - | - | - |
| 1777063324 | 33.89° C | 48% | 1002.5 hPa | - | - | - | - |
| 1777063023 | 33.89° C | 46% | 1002.3 hPa | - | - | - | - |
| 1777062722 | 33.89° C | 49% | 1002.3 hPa | - | - | - | - |
| 1777062421 | 33.89° C | 47% | 1002.2 hPa | - | - | - | - |
| 1777062120 | 33.89° C | 46% | 1002.3 hPa | - | - | - | - |
| 1777061819 | 33.89° C | 46% | 1002.1 hPa | - | - | - | - |
| 1777061519 | 33.89° C | 46% | 1002 hPa | - | - | - | - |
* Rain since midnight (hover to see other rain measurements)
** Current wind speed in m/s (hover to see current wind gust speed)